Gilze-Rijen, Netherlands

7:21 AM CET on February 23, 2017 (GMT +0100)
Gilze-Rijen Air Base

Weather History for EHGR - November, 2012

Change the Weather History Date:

Thursday, November 8, 2012

  Actual Average Record
Temperature  
Mean Temperature 50 °F -  
Max Temperature 51 °F 45 °F 64 °F (2015)
Min Temperature 48 °F 36 °F 29 °F (2016)
Degree Days  
Heating Degree Days 16    
Moisture  
Dew Point 45 °F    
Average Humidity 83    
Maximum Humidity 93    
Minimum Humidity 76    
Precipitation  
Precipitation 0.00 in - - ()
Sea Level Pressure  
Sea Level Pressure 30.06 in    
Wind  
Wind Speed 9 mph ()    
Max Wind Speed 13 mph    
Max Gust Speed 23 mph    
Visibility 6.0 miles    
Events Rain    
Averages and records for this station are not official NWS values.
T = Trace of Precipitation, MM = Missing Value Source: Averaged Metar Reports

Daily Weather History Graph

Daily Weather History Graph

Search for Another Location

Airport or City:

Trip Planner

Search our weather history database for the weather conditions in past years. The results will help you decide how hot, cold, wet, or windy it might be!

Date:

Astronomy

Nov. 08, 2012 Rise Set
Actual Time 7:46 AM CET 5:00 PM CET
Civil Twilight 7:10 AM CET 5:36 PM CET
Nautical Twilight 6:30 AM CET 6:16 PM CET
Astronomical Twilight 5:51 AM CET 6:55 PM CET
Moon 12:43 AM CET (11/8) 2:11 PM CET (11/8)
Length of Visible Light 10h 25m
Length of Day
9h 13m
Waning Crescent, 35% of the Moon is Illuminated
Nov 8
Waning Crescent
Nov 13
New
Nov 20
First Quarter
Nov 28
Full
Dec 6
Last Quarter

Hourly Weather History & Observations

Time (CET) Temp. Dew Point Humidity Pressure Visibility Wind Dir Wind Speed Gust Speed Precip Events Conditions
12:25 AM 50.0 °F 44.6 °F 82% 30.18 in 6.2 mi WSW 11.5 mph 23.0 mph N/A   Overcast
12:30 AM 50.0 °F 44.6 °F 82% 30.18 in 6.2 mi WSW 11.5 mph 23.0 mph N/A   Overcast
12:34 AM 50.0 °F 44.6 °F 82% 30.18 in 6.2 mi WSW 10.4 mph - N/A   Overcast
12:55 AM 50.0 °F 44.6 °F 82% 30.18 in 6.2 mi WSW 9.2 mph - N/A   Overcast
1:19 AM 50.0 °F 44.6 °F 82% 30.15 in 6.2 mi West 10.4 mph - N/A   Overcast
1:25 AM 50.0 °F 42.8 °F 76% 30.15 in 6.2 mi WSW 9.2 mph - N/A   Overcast
1:26 AM 50.0 °F 42.8 °F 76% 30.15 in 6.2 mi WSW 9.2 mph - N/A   Overcast
1:55 AM 50.0 °F 42.8 °F 76% 30.15 in 6.2 mi WSW 10.4 mph - N/A   Overcast
2:10 AM 50.0 °F 42.8 °F 76% 30.15 in 6.2 mi WSW 10.4 mph - N/A   Overcast
2:25 AM 50.0 °F 42.8 °F 76% 30.15 in 6.2 mi WSW 9.2 mph - N/A   Overcast
2:55 AM 50.0 °F 44.6 °F 82% 30.15 in 6.2 mi WSW 10.4 mph - N/A   Overcast
3:25 AM 50.0 °F 44.6 °F 82% 30.12 in 6.2 mi WSW 9.2 mph - N/A   Overcast
3:55 AM 50.0 °F 42.8 °F 76% 30.12 in 6.2 mi SW 10.4 mph - N/A   Overcast
4:25 AM 50.0 °F 42.8 °F 76% 30.12 in 6.2 mi WSW 8.1 mph - N/A   Overcast
4:55 AM 48.2 °F 42.8 °F 82% 30.09 in 6.2 mi WSW 10.4 mph - N/A   Overcast
5:25 AM 48.2 °F 42.8 °F 82% 30.09 in 6.2 mi SW 9.2 mph - N/A   Overcast
5:55 AM 48.2 °F 42.8 °F 82% 30.09 in 6.2 mi SW 8.1 mph - N/A   Overcast
6:25 AM 48.2 °F 42.8 °F 82% 30.09 in 6.2 mi SW 9.2 mph - N/A   Overcast
6:47 AM 50.0 °F 42.8 °F 76% 30.09 in 6.2 mi SW 9.2 mph - N/A   Overcast
6:55 AM 48.2 °F 42.8 °F 82% 30.09 in 6.2 mi WSW 9.2 mph - N/A   Overcast
7:00 AM 48.2 °F 42.8 °F 82% 30.09 in 6.2 mi WSW 9.2 mph - N/A   Overcast
7:05 AM 48.2 °F 42.8 °F 82% 30.09 in 6.2 mi WSW 8.1 mph - N/A   Overcast
7:25 AM 50.0 °F 44.6 °F 82% 30.09 in 6.2 mi WSW 6.9 mph - N/A   Overcast
7:55 AM 48.2 °F 44.6 °F 87% 30.06 in 6.2 mi SW 8.1 mph - N/A   Overcast
8:25 AM 50.0 °F 44.6 °F 82% 30.09 in 6.2 mi SW 8.1 mph - N/A   Overcast
8:55 AM 50.0 °F 44.6 °F 82% 30.09 in 6.2 mi SW 9.2 mph - N/A   Overcast
9:00 AM 50.0 °F 44.6 °F 82% 30.09 in 6.2 mi SW 9.2 mph - N/A   Overcast
9:25 AM 50.0 °F 44.6 °F 82% 30.06 in 6.2 mi SW 10.4 mph - N/A   Overcast
9:27 AM 50.0 °F 44.6 °F 82% 30.06 in 6.2 mi SW 10.4 mph - N/A   Overcast
9:55 AM 50.0 °F 44.6 °F 82% 30.06 in 6.2 mi SW 9.2 mph - N/A   Overcast
10:25 AM 51.8 °F 44.6 °F 76% 30.06 in 6.2 mi SW 10.4 mph - N/A   Overcast
10:31 AM 51.8 °F 44.6 °F 76% 30.06 in 6.2 mi WSW 10.4 mph - N/A   Mostly Cloudy
10:32 AM 51.8 °F 44.6 °F 76% 30.06 in 6.2 mi WSW 10.4 mph - N/A   Mostly Cloudy
10:41 AM 51.8 °F 44.6 °F 76% 30.06 in 3.1 mi WSW 10.4 mph - N/A   Mostly Cloudy
10:45 AM 51.8 °F 44.6 °F 76% 30.06 in 4.3 mi WSW 10.4 mph - N/A Rain Light Rain
10:55 AM 50.0 °F 44.6 °F 82% 30.06 in 3.7 mi WSW 10.4 mph - N/A   Overcast
11:06 AM 50.0 °F 46.4 °F 87% 30.06 in 4.3 mi WSW 11.5 mph - N/A   Overcast
11:13 AM 50.0 °F 46.4 °F 87% 30.06 in 6.2 mi WSW 10.4 mph - N/A   Overcast
11:25 AM 50.0 °F 46.4 °F 87% 30.06 in 3.1 mi WSW 9.2 mph - N/A   Heavy Drizzle
11:32 AM 50.0 °F 46.4 °F 87% 30.06 in 3.1 mi WSW 9.2 mph - N/A   Drizzle
11:33 AM 50.0 °F 46.4 °F 87% 30.06 in 4.3 mi WSW 8.1 mph - N/A   Drizzle
11:46 AM 50.0 °F 46.4 °F 87% 30.06 in 6.2 mi SW 9.2 mph - N/A   Overcast
11:55 AM 50.0 °F 46.4 °F 87% 30.06 in 6.2 mi WSW 9.2 mph - N/A   Overcast
12:02 PM 50.0 °F 46.4 °F 87% 30.06 in 4.3 mi WSW 9.2 mph - N/A   Overcast
12:11 PM 50.0 °F 46.4 °F 87% 30.06 in 5.6 mi WSW 9.2 mph - N/A Rain Light Rain
12:20 PM 50.0 °F 46.4 °F 87% 30.06 in - WSW 8.1 mph - N/A   Overcast
12:25 PM 51.8 °F 46.4 °F 82% 30.06 in 5.6 mi WSW 9.2 mph - N/A   Mostly Cloudy
12:28 PM 51.8 °F 46.4 °F 82% 30.06 in 6.2 mi WSW 9.2 mph - N/A   Overcast
12:41 PM 51.8 °F 46.4 °F 82% 30.06 in 6.2 mi WSW 9.2 mph 20.7 mph N/A   Overcast
12:44 PM 51.8 °F 46.4 °F 82% 30.04 in 6.2 mi WSW 8.1 mph - N/A   Overcast
12:55 PM 51.8 °F 46.4 °F 82% 30.04 in 6.2 mi WSW 9.2 mph - N/A   Overcast
1:00 PM 51.8 °F 46.4 °F 82% 30.04 in 6.2 mi WSW 10.4 mph - N/A   Overcast
1:18 PM 51.8 °F 46.4 °F 82% 30.04 in 6.2 mi WSW 11.5 mph - N/A   Overcast
1:25 PM 51.8 °F 46.4 °F 82% 30.04 in 6.2 mi WSW 12.7 mph - N/A   Overcast
1:31 PM 51.8 °F 46.4 °F 82% 30.04 in 6.2 mi WSW 9.2 mph - N/A   Overcast
1:45 PM 51.8 °F 46.4 °F 82% 30.04 in 6.2 mi WSW 10.4 mph - N/A   Overcast
1:55 PM 51.8 °F 46.4 °F 82% 30.04 in 6.2 mi WSW 10.4 mph - N/A   Overcast
2:09 PM 51.8 °F 46.4 °F 82% 30.04 in 6.2 mi WSW 10.4 mph - N/A   Mostly Cloudy
2:20 PM 51.8 °F 46.4 °F 82% 30.04 in 6.2 mi WSW 8.1 mph - N/A   Mostly Cloudy
2:25 PM 51.8 °F 46.4 °F 82% 30.04 in 6.2 mi WSW 10.4 mph - N/A   Overcast
2:39 PM 51.8 °F 46.4 °F 82% 30.04 in 6.2 mi WSW 9.2 mph - N/A   Mostly Cloudy
2:47 PM 51.8 °F 46.4 °F 82% 30.04 in 6.2 mi WSW 9.2 mph - N/A   Mostly Cloudy
2:55 PM 51.8 °F 46.4 °F 82% 30.04 in 6.2 mi WSW 9.2 mph - N/A   Overcast
3:09 PM 51.8 °F 46.4 °F 82% 30.04 in 6.2 mi WSW 6.9 mph - N/A   Overcast
3:13 PM 51.8 °F 46.4 °F 82% 30.04 in 6.2 mi WSW 8.1 mph - N/A   Overcast
3:17 PM 51.8 °F 46.4 °F 82% 30.04 in 6.2 mi WSW 9.2 mph - N/A   Overcast
3:25 PM 51.8 °F 46.4 °F 82% 30.04 in 6.2 mi WSW 10.4 mph - N/A   Overcast
3:42 PM 51.8 °F 46.4 °F 82% 30.04 in 6.2 mi WSW 9.2 mph - N/A   Overcast
3:46 PM 51.8 °F 46.4 °F 82% 30.04 in 6.2 mi WSW 9.2 mph - N/A   Overcast
3:55 PM 51.8 °F 46.4 °F 82% 30.01 in 6.2 mi WSW 9.2 mph - N/A   Overcast
4:00 PM 51.8 °F 46.4 °F 82% 30.01 in 6.2 mi WSW 8.1 mph - N/A   Overcast
4:12 PM 51.8 °F 46.4 °F 82% 30.04 in 6.2 mi WSW 8.1 mph - N/A   Overcast
4:25 PM 51.8 °F 46.4 °F 82% 30.01 in 6.2 mi WSW 9.2 mph - N/A   Mostly Cloudy
4:26 PM 51.8 °F 46.4 °F 82% 30.01 in 6.2 mi WSW 6.9 mph - N/A   Overcast
4:33 PM 51.8 °F 46.4 °F 82% 30.01 in 6.2 mi WSW 6.9 mph - N/A   Mostly Cloudy
4:37 PM 51.8 °F 46.4 °F 82% 30.01 in 6.2 mi WSW 6.9 mph - N/A   Overcast
4:38 PM 51.8 °F 46.4 °F 82% 30.01 in 6.2 mi West 6.9 mph - N/A   Overcast
4:39 PM 51.8 °F 46.4 °F 82% 30.01 in 6.2 mi West 6.9 mph - N/A   Overcast
4:47 PM 50.0 °F 46.4 °F 87% 30.01 in 6.2 mi WSW 6.9 mph - N/A   Overcast
4:55 PM 50.0 °F 46.4 °F 87% 30.01 in 6.2 mi West 6.9 mph - N/A   Overcast
5:21 PM 50.0 °F 46.4 °F 87% 30.04 in 6.2 mi WSW 5.8 mph - N/A   Mostly Cloudy
5:25 PM 50.0 °F 46.4 °F 87% 30.04 in 6.2 mi WSW 4.6 mph - N/A   Mostly Cloudy
5:30 PM 50.0 °F 46.4 °F 87% 30.04 in 6.2 mi WSW 4.6 mph - N/A   Mostly Cloudy
5:35 PM 50.0 °F 46.4 °F 87% 30.04 in 6.2 mi West 5.8 mph - N/A   Mostly Cloudy
5:40 PM 50.0 °F 46.4 °F 87% 30.04 in 6.2 mi West 6.9 mph - N/A   Mostly Cloudy
5:43 PM 50.0 °F 46.4 °F 87% 30.04 in 6.2 mi West 5.8 mph - N/A   Mostly Cloudy
5:55 PM 50.0 °F 46.4 °F 87% 30.04 in 6.2 mi WSW 4.6 mph - N/A   Overcast
6:25 PM 50.0 °F 46.4 °F 87% 30.04 in 6.2 mi WSW 5.8 mph - N/A   Overcast
6:55 PM 50.0 °F 46.4 °F 87% 30.04 in 6.2 mi WSW 5.8 mph - N/A   Overcast
7:25 PM 50.0 °F 46.4 °F 87% 30.04 in 6.2 mi WSW 4.6 mph - N/A   Overcast
7:34 PM 50.0 °F 46.4 °F 87% 30.04 in 6.2 mi WSW 5.8 mph - N/A   Overcast
7:55 PM 50.0 °F 46.4 °F 87% 30.04 in 6.2 mi SW 6.9 mph - N/A   Overcast
8:25 PM 50.0 °F 46.4 °F 87% 30.04 in 6.2 mi WSW 5.8 mph - N/A   Overcast
8:55 PM 50.0 °F 46.4 °F 87% 30.04 in 6.2 mi SW 6.9 mph - N/A   Overcast
9:25 PM 50.0 °F 46.4 °F 87% 30.04 in 6.2 mi SW 5.8 mph - N/A   Overcast
9:55 PM 50.0 °F 46.4 °F 87% 30.04 in 6.2 mi SW 6.9 mph - N/A   Overcast
10:21 PM 50.0 °F 46.4 °F 87% 30.04 in 6.2 mi SW 5.8 mph - N/A   Overcast
10:25 PM 50.0 °F 46.4 °F 87% 30.04 in 6.2 mi SW 4.6 mph - N/A   Overcast
10:55 PM 48.2 °F 46.4 °F 93% 30.04 in 6.2 mi SSW 5.8 mph - N/A   Overcast
11:25 PM 48.2 °F 46.4 °F 93% 30.04 in 6.2 mi SSW 4.6 mph - N/A   Overcast
11:55 PM 48.2 °F 46.4 °F 93% 30.04 in 6.2 mi SW 5.8 mph - N/A   Overcast